Terminal Aerodrome Forecast
Issued by NWS Columbia, SC

Home | Current Version | Previous Version | Text Only | Print | Product List | Glossary On
Versions: 1 2 3 4 5 6 7 8 9 10 11 12 13 14 15 16 17 18 19 20 21 22 23 24 25 26 27 28 29 30 31 32 33 34 35 36 37 38 39 40 41 42 43
000
FTUS42 KCAE 280906 AAA
TAFAGS
TAF AMD
KAGS 280906Z 2809/2906 VRB03KT P6SM SCT050
      TEMPO 2809/2811 3SM BR
     FM281400 05006KT P6SM BKN040
     FM290000 04005KT P6SM VCSH BKN035=

USA.gov is the U.S. government's official web portal to all federal, state and local government web resources and services.